This demonstration page uses our WeatherBlox Daily Observations layout. Learn more.

Left ArrowRight Arrow

36.17497, -115.13722

Hourly Observations for December 24, 2018

Temp ( °F °C ) Dew Point ( °F °C ) Humidity (%) Winds ( mph kmh ) Pressure ( in mb ) Visibility ( mi km ) Precip ( " mm )
12:53 am 00:53 Clear 45 7.2 22 -5.6 40 40 WNW 7 11 30.15 1021 10 16.0934 0 0
1:53 am 01:53 Clear 46 7.8 20 -6.7 35 35 W 7 11 30.15 1021 10 16.0934 0 0
2:53 am 02:53 Clear 42 5.6 21 -6.1 43 43 N 3 6 30.14 1021 10 16.0934 0 0
3:53 am 03:53 Clear 41 5 22 -5.6 47 47 WNW 7 11 30.14 1021 10 16.0934 0 0
4:53 am 04:53 Clear 44 6.7 19 -7.2 37 37 NNE 3 6 30.14 1021 10 16.0934 0 0
5:53 am 05:53 Clear 41 5 20 -6.7 43 43 Calm 30.16 1021 10 16.0934 0 0
6:53 am 06:53 Sunny 42 5.6 21 -6.1 43 43 NW 3 6 30.16 1022 10 16.0934 0 0
7:53 am 07:53 Sunny 42 5.6 23 -5 47 47 NW 5 7 30.18 1022 10 16.0934 0 0
8:53 am 08:53 Sunny 50 10 22 -5.6 33 33 Calm 30.17 1022 10 16.0934 0 0
9:53 am 09:53 Sunny 51 10.6 20 -6.7 29 29 Calm 30.16 1021 10 16.0934 0 0
10:53 am 10:53 Sunny 52 11.1 20 -6.7 28 28 SE 5 7 30.13 1020 10 16.0934 0 0
11:53 am 11:53 Sunny 54 12.2 20 -6.7 26 26 SE 3 6 30.08 1019 10 16.0934 0 0
12:53 pm 12:53 Sunny 56 13.3 19 -7.2 24 24 SE 5 7 30.04 1017 10 16.0934 0 0
1:53 pm 13:53 Sunny 58 14.4 18 -7.8 21 21 E 5 7 30.01 1016 10 16.0934 0 0
2:53 pm 14:53 Sunny 59 15 18 -7.8 20 20 Calm 30 1016 10 16.0934 0 0
3:53 pm 15:53 Sunny 58 14.4 18 -7.8 21 21 E 5 7 29.98 1015 10 16.0934 0 0
4:53 pm 16:53 Clear 54 12.2 18 -7.8 24 24 SE 3 6 29.96 1014 10 16.0934 0 0
5:53 pm 17:53 Clear 52 11.1 21 -6.1 30 30 S 6 9 29.93 1014 10 16.0934 0 0
6:53 pm 18:53 Clear 51 10.6 22 -5.6 32 32 SW 3 6 29.92 1013 10 16.0934 0 0
7:53 pm 19:53 Clear 48 8.9 22 -5.6 36 36 NNE 6 9 29.91 1013 10 16.0934 0 0
8:53 pm 20:53 Clear 47 8.3 22 -5.6 37 37 Calm 29.86 1011 10 16.0934 0 0
9:53 pm 21:53 Clear 47 8.3 22 -5.6 37 37 Calm 29.83 1010 10 16.0934 0 0
10:53 pm 22:53 Clear 45 7.2 21 -6.1 39 39 NW 3 6 29.82 1010 10 16.0934 0 0
11:53 pm 23:53 Clear 43 6.1 23 -5 45 45 Calm 29.79 1009 10 16.0934 0 0

Powered by AerisWeather